RH
10 10 10 10 10 10 9 9 8 7 6 5 5 4 4 4 4 4 4 4 3 3 3 3 3 3 2 2 1 1 1 1 2 1 2 1 2 2 1 2 4 5 8 9 19 36 36 23 27 40 46 52 59 64 66 65 63 68 74 76 82 86 93 94 84 82 83 81 72 68 73 72 71 67 59 62 67 67 65 64 56 50 50 46 42 42 45 46
10 11 11 11 11 10 10 10 9 8 7 7 6 5 5 4 4 4 4 4 4 4 4 4 3 4 3 2 2 1 1 1 2 1 2 2 1 2 2 2 2 3 5 7 11 26 43 36 23 31 41 45 55 65 66 67 66 68 75 76 78 83 91 93 86 79 74 80 78 66 66 68 71 65 62 71 70 69 72 71 62 49 46 45 42 40 40 42
11 11 11 11 12 11 11 11 11 11 9 8 7 7 6 5 5 4 5 5 4 4 4 4 4 4 4 3 2 2 2 1 1 1 1 2 2 1 2 2 1 3 3 5 8 12 34 46 30 23 34 40 47 61 64 65 68 66 71 76 77 80 89 91 83 76 69 76 77 64 62 62 60 53 55 67 64 68 71 69 68 54 43 43 43 40 37 39
11 11 11 11 12 12 12 12 12 12 11 11 9 8 7 6 6 5 5 5 5 5 4 4 4 4 4 4 4 3 2 2 1 1 2 1 2 2 2 3 1 2 2 3 6 6 18 40 39 24 27 36 40 53 61 64 67 67 70 74 75 79 87 86 80 79 73 77 77 65 67 65 59 56 58 64 63 67 72 72 72 60 46 42 42 40 36 39
11 11 11 11 11 12 12 12 13 12 12 12 11 10 9 8 7 6 6 5 5 5 5 4 4 4 4 4 4 4 2 2 2 1 2 1 1 2 1 2 2 1 2 1 3 5 7 26 43 33 24 32 36 43 55 64 66 67 70 69 72 77 82 85 86 81 64 67 73 65 76 80 65 58 61 65 66 63 68 75 70 60 53 45 43 42 38 39
12 12 12 11 11 11 11 12 12 13 13 12 12 12 11 10 9 8 7 6 6 6 6 5 4 4 4 5 4 5 4 2 3 2 1 2 1 2 2 2 2 1 2 2 1 4 5 12 32 39 30 30 35 38 48 61 64 65 70 68 70 73 76 79 82 78 62 62 73 68 75 77 61 62 67 65 69 65 60 65 62 60 59 50 46 44 41 39
11 12 12 13 13 12 11 11 11 12 13 13 13 13 13 12 11 10 9 8 7 6 6 6 5 5 4 4 4 5 5 3 3 2 2 2 1 1 2 1 2 2 1 2 1 2 5 6 16 36 42 37 36 36 42 52 58 64 67 67 66 65 65 64 62 67 67 69 75 67 63 62 56 68 72 64 73 73 58 55 54 57 57 49 47 46 44 41
6 7 9 10 12 13 12 12 11 11 12 12 13 13 13 13 13 12 11 10 8 7 7 6 6 5 5 4 5 5 4 5 4 3 2 2 2 1 2 2 2 2 1 2 2 2 4 6 9 25 41 45 40 37 39 43 48 57 64 65 63 63 62 60 58 59 62 70 72 63 57 58 57 66 71 66 71 69 61 57 47 46 47 40 42 46 41 38
4 4 5 5 7 9 10 12 12 12 12 12 12 12 13 13 14 14 13 12 11 10 8 7 7 6 6 4 5 5 4 5 6 4 3 2 2 1 1 2 1 2 2 1 2 2 3 6 10 18 34 47 47 40 37 36 41 50 58 59 58 61 65 66 66 62 61 67 70 63 60 59 56 59 60 56 58 57 54 53 45 43 41 32 34 38 34 30
4 4 4 4 4 5 6 7 9 11 12 13 13 12 12 13 14 14 14 14 12 12 10 9 8 7 6 5 5 5 4 5 6 5 4 3 3 2 2 1 2 2 2 2 2 2 2 5 11 17 26 38 45 44 36 30 37 45 47 47 48 53 61 66 68 65 62 66 68 63 64 66 61 56 48 46 60 63 53 49 51 50 41 32 31 29 27 27
4 4 4 4 4 4 4 4 5 7 9 11 13 13 13 12 13 14 14 15 14 13 13 11 10 8 7 6 6 6 5 4 6 7 5 4 3 3 2 1 2 2 2 2 2 2 2 4 10 14 17 22 32 42 40 30 32 38 40 41 42 46 55 60 61 62 62 66 69 61 64 71 66 60 48 49 64 67 61 59 59 55 43 35 33 30 30 29
4 4 4 4 3 4 4 4 4 4 5 6 8 11 13 14 13 13 14 15 15 14 14 13 12 11 8 7 8 6 4 4 6 7 6 6 5 3 3 2 2 2 2 2 2 2 2 3 6 9 12 16 21 34 44 43 41 40 41 44 46 49 53 56 57 60 61 66 68 60 63 69 65 64 56 52 59 61 64 67 66 60 51 43 36 34 37 32
4 4 4 4 4 4 3 3 4 3 4 4 4 6 8 12 13 14 14 14 15 15 15 15 13 13 10 10 9 6 4 5 6 7 6 6 6 5 3 3 2 2 2 2 2 2 2 2 3 5 9 14 16 25 37 44 47 46 44 48 53 53 50 55 60 60 59 64 67 61 63 69 68 68 60 51 50 52 59 66 71 66 55 51 43 36 36 31
4 4 4 4 3 4 3 3 3 3 4 3 4 4 4 6 8 12 14 14 15 15 15 15 15 14 12 14 12 7 5 6 6 7 7 6 6 6 5 4 3 2 2 2 2 2 2 2 2 3 5 9 14 19 24 25 33 42 47 48 49 50 49 56 62 62 62 63 68 64 62 72 83 84 69 54 50 50 57 66 76 72 55 52 53 49 41 31
4 3 3 3 3 4 4 3 4 3 3 3 3 4 4 4 4 6 9 13 15 15 15 14 16 15 15 17 15 10 7 6 7 8 7 7 6 6 6 6 4 3 2 2 2 2 3 2 2 3 2 6 10 15 17 14 21 32 41 41 39 42 47 57 64 62 63 64 66 62 62 78 93 96 77 58 56 54 58 66 75 77 65 58 53 48 45 34
4 4 4 4 3 3 4 3 4 4 3 3 3 3 3 3 4 4 4 7 10 14 16 14 15 15 16 18 17 14 12 8 8 9 7 6 6 6 6 7 5 4 3 2 2 2 2 2 2 2 2 4 5 10 12 11 15 20 27 31 33 38 43 57 67 61 60 68 71 62 69 88 87 86 82 68 64 64 64 66 72 76 72 70 56 41 41 35
7 7 6 6 5 5 4 4 3 4 4 3 4 3 3 3 3 4 4 4 5 8 12 14 15 14 15 18 19 19 16 11 8 8 8 8 7 7 7 7 7 6 4 3 2 2 2 2 2 2 2 2 2 6 8 8 11 12 17 22 28 36 38 57 77 74 64 66 75 69 71 89 83 77 85 82 78 77 73 70 74 74 67 68 56 39 37 30
11 10 10 9 9 9 7 6 5 4 4 4 4 3 3 4 3 3 3 3 4 4 6 10 13 14 15 16 18 20 17 14 12 10 10 9 8 7 7 8 8 7 6 4 3 2 2 2 2 2 2 2 2 3 3 5 9 12 15 19 27 32 38 67 91 88 75 68 77 78 73 83 84 80 87 90 87 83 78 76 76 72 65 61 51 43 38 28
13 12 13 12 11 12 11 10 9 7 7 6 5 4 4 4 4 3 3 3 3 3 3 5 8 11 13 15 16 18 18 18 15 12 12 12 11 9 7 8 8 8 7 5 4 3 2 2 2 2 1 2 2 2 2 4 10 16 17 21 27 29 46 82 96 90 85 81 81 81 79 81 80 82 86 86 88 85 78 76 75 68 63 60 54 49 39 26
12 12 12 12 12 12 12 11 11 10 9 8 8 7 5 5 5 3 3 3 3 3 4 4 4 6 8 12 15 16 18 19 17 15 16 16 14 11 8 8 8 8 7 6 5 4 3 2 1 2 2 2 2 2 2 2 8 16 25 46 52 44 57 82 91 91 89 88 87 82 84 84 80 79 80 77 80 84 79 75 74 66 60 62 60 50 37 27
11 11 10 11 11 10 11 11 11 10 10 10 10 9 8 7 6 5 3 4 4 3 3 3 3 4 5 7 11 14 16 17 18 17 17 17 16 13 9 8 8 8 8 7 7 6 4 3 2 2 2 3 3 2 3 2 5 12 27 65 83 70 70 79 88 94 86 82 87 84 84 89 88 84 82 79 74 78 81 77 73 62 54 61 64 51 38 32
10 10 10 10 10 10 11 10 10 11 10 10 10 9 9 9 8 7 4 3 5 5 3 3 3 3 4 5 6 10 13 15 18 17 18 18 17 15 12 9 9 8 9 9 8 7 5 3 2 2 2 3 3 2 3 1 3 9 15 43 72 77 74 74 83 89 80 79 86 84 81 87 92 89 87 88 79 80 85 83 78 66 56 58 59 51 42 38
9 9 9 9 9 9 10 10 10 10 10 10 10 10 10 9 9 8 6 4 5 6 4 3 4 3 3 4 3 6 9 12 16 17 18 18 18 19 16 13 11 9 9 9 8 8 6 5 3 3 2 3 3 2 3 2 2 7 10 17 39 64 71 64 71 80 76 77 80 79 79 83 90 91 89 91 87 86 89 88 86 72 58 56 54 52 48 44
7 7 7 7 7 7 7 8 7 8 9 9 9 9 9 9 9 8 8 6 4 8 8 5 4 4 4 5 4 4 5 8 12 15 17 17 19 21 19 17 16 13 10 9 9 9 7 7 5 4 3 2 3 3 2 3 2 2 7 9 14 40 63 61 60 70 73 72 68 74 85 83 85 91 91 88 83 80 85 86 85 77 62 53 54 54 47 43
6 5 6 5 5 5 5 5 5 5 6 6 6 7 7 8 8 8 8 7 5 7 10 8 4 5 7 7 4 3 3 5 8 12 14 16 18 20 22 20 18 14 12 11 11 10 9 9 7 4 4 3 3 3 2 3 4 2 3 7 6 21 50 62 60 65 75 77 68 71 86 81 76 82 81 79 76 74 80 81 77 77 67 53 54 59 49 40
5 5 5 4 4 4 4 4 4 4 4 4 4 4 4 5 5 6 7 7 6 6 10 10 8 7 8 8 5 4 4 3 5 8 11 14 16 20 24 22 19 17 15 15 13 10 9 10 9 6 4 4 2 3 3 2 3 3 1 3 5 13 35 55 61 62 67 76 73 67 74 77 74 71 66 70 76 72 75 80 75 73 71 60 55 58 54 46
4 4 3 4 4 3 3 3 3 3 3 3 3 3 4 3 3 4 5 6 6 7 8 10 11 10 9 10 8 5 4 3 4 5 7 11 14 17 21 21 20 19 18 19 15 10 9 10 10 8 6 6 4 2 3 3 2 2 3 2 3 7 19 39 58 61 57 65 73 70 67 70 76 77 67 60 65 65 66 78 85 78 68 60 50 51 56 52
4 4 3 4 3 2 3 2 2 2 2 2 2 2 2 2 3 3 3 4 5 6 7 8 11 12 13 13 11 8 6 5 4 4 5 7 10 14 18 19 20 21 22 20 12 10 11 11 10 9 9 6 5 4 1 2 3 1 3 3 3 4 6 22 49 68 70 62 62 67 66 66 74 78 65 50 52 56 60 80 99 88 64 55 50 51 57 54
4 3 4 6 5 5 4 2 4 3 3 3 1 2 2 2 3 1 3 2 3 9 8 7 8 9 12 14 12 12 11 8 6 5 6 6 7 11 15 18 21 23 25 22 17 16 14 12 12 11 11 9 5 5 3 2 3 2 4 3 4 5 5 10 27 56 75 66 56 64 67 68 74 69 55 48 44 41 50 71 93 87 64 58 57 51 56 56
5 5 7 9 8 9 7 6 7 5 6 4 2 3 1 1 2 1 3 0 3 15 14 11 14 11 10 12 13 14 14 12 10 8 7 5 6 10 13 20 26 26 26 26 22 21 18 15 15 12 11 11 9 5 4 3 3 3 4 3 3 7 10 10 11 31 52 49 47 55 60 67 71 65 62 60 44 36 48 59 76 84 67 61 63 50 49 55
7 9 11 11 11 11 10 11 12 13 13 9 7 5 1 4 2 0 4 -1 6 25 22 17 16 9 8 11 11 13 14 14 12 11 10 6 5 8 11 16 23 27 28 28 25 24 23 19 15 14 12 12 12 9 5 3 3 3 3 3 4 4 8 9 9 17 24 23 25 33 47 55 44 39 60 78 66 55 59 60 76 90 67 58 67 51 42 50
10 12 12 12 11 11 12 15 18 20 17 11 9 5 3 5 0 2 5 -1 17 34 24 18 12 3 7 9 8 12 14 15 15 14 11 7 5 6 9 11 15 20 21 21 26 27 25 21 15 14 14 12 12 11 8 4 4 4 3 3 3 3 5 6 5 8 7 8 11 18 35 36 14 10 39 71 73 60 58 58 71 82 56 46 62 56 47 46
12 12 11 10 9 11 12 15 18 17 14 10 7 4 5 3 2 7 0 6 46 50 21 17 11 0 6 6 5 10 11 14 16 16 15 11 7 5 8 10 11 15 18 20 26 26 23 24 21 15 12 12 12 11 10 6 4 4 3 3 3 4 6 3 2 3 2 3 7 15 24 16 3 3 15 34 44 44 57 65 68 68 45 36 53 61 59 46
12 9 9 8 9 10 10 15 16 14 12 9 7 6 5 4 7 7 6 42 88 61 20 21 14 5 10 7 7 10 10 17 18 18 20 15 10 8 7 11 12 12 22 31 30 25 24 23 18 13 11 11 11 10 10 9 5 5 4 3 3 3 3 2 2 3 2 3 6 11 12 4 2 5 4 10 17 21 46 69 71 58 33 30 46 51 60 55
9 8 9 9 10 11 13 18 15 12 13 12 16 16 15 27 42 44 56 90 89 37 12 22 16 13 14 8 13 12 8 18 22 22 25 18 13 10 5 9 12 10 22 36 31 25 29 25 17 17 16 13 12 12 11 12 10 6 5 4 3 3 2 2 3 3 4 5 5 5 5 2 2 5 4 7 9 7 20 42 55 54 40 32 32 30 47 62
9 10 12 12 15 16 18 20 15 13 15 17 31 42 46 67 88 91 99 99 61 16 9 25 36 46 46 40 40 32 27 37 44 43 36 24 16 15 12 10 12 12 14 23 29 29 29 27 26 28 24 17 14 14 12 13 13 9 6 4 3 4 2 3 11 16 14 12 10 5 4 5 3 3 4 4 5 6 7 12 23 48 63 44 18 15 35 58
13 14 19 20 21 21 22 22 15 13 18 25 43 62 69 83 95 95 100 98 73 40 19 34 72 91 90 90 85 75 71 72 78 77 60 39 23 18 19 12 11 17 14 17 34 39 32 32 34 29 26 24 19 17 16 15 15 12 9 6 4 5 4 4 14 23 22 22 21 16 14 15 9 5 4 3 3 3 6 6 4 28 62 49 12 6 27 56
22 21 25 26 26 25 26 24 16 16 28 36 44 55 63 77 91 91 90 90 88 76 48 49 87 103 98 103 100 94 88 76 80 89 81 69 48 29 30 28 20 17 13 16 35 48 48 50 52 38 28 30 26 20 20 18 17 15 12 10 7 5 5 3 6 13 22 28 28 30 35 34 25 14 5 4 4 2 4 6 2 11 37 41 20 8 20 47
33 31 31 32 32 31 30 26 21 23 32 38 49 57 56 65 84 91 87 76 73 85 76 62 81 99 100 102 98 91 84 75 77 81 82 90 82 68 66 62 49 35 23 19 29 49 62 65 67 56 41 40 34 24 21 20 19 18 17 17 13 8 7 5 2 3 17 36 40 38 37 35 36 27 10 4 4 3 4 5 3 6 16 27 28 17 12 26
44 44 42 39 37 37 35 29 24 28 35 40 53 62 52 52 71 85 92 85 71 74 76 63 69 91 101 101 97 92 85 83 85 78 77 90 95 95 88 70 64 57 37 24 23 40 64 69 69 67 62 57 40 20 17 21 21 18 18 22 18 11 8 7 7 2 5 29 48 48 36 28 33 32 21 18 12 3 5 6 4 6 8 13 20 18 13 15
51 53 52 47 45 44 40 35 28 32 41 40 38 44 42 46 63 75 84 93 86 76 70 60 59 80 100 101 98 99 90 84 89 85 84 93 95 100 98 82 73 59 34 21 18 32 62 73 69 69 71 66 41 18 17 22 24 20 18 20 16 12 11 8 9 6 1 11 34 49 45 36 37 35 33 40 27 6 5 8 6 6 7 9 11 10 12 10
56 58 56 54 56 50 40 39 37 39 44 38 34 44 48 51 61 65 67 80 90 86 75 59 48 60 88 102 98 100 97 89 93 96 92 98 99 94 99 98 81 64 54 37 14 21 55 77 75 68 67 66 54 37 24 21 28 28 21 21 18 13 12 9 8 10 7 4 15 33 40 39 41 37 37 44 29 6 6 10 8 7 11 21 20 14 14 9
62 67 64 57 59 53 42 43 48 51 48 41 43 48 46 50 59 60 60 65 72 78 77 67 54 47 67 98 102 96 101 97 96 103 99 99 102 90 88 98 85 77 84 62 27 27 53 78 84 72 63 62 61 57 43 28 32 36 27 24 22 17 15 14 11 13 13 8 8 19 32 42 47 42 41 40 24 10 7 8 10 9 13 30 37 33 28 14
66 76 75 69 67 59 53 54 57 61 56 50 54 49 39 44 53 53 53 53 51 54 59 62 65 55 52 82 103 97 100 102 96 101 101 99 101 82 72 90 92 86 87 70 56 56 57 74 86 71 62 60 57 67 66 43 32 36 35 28 22 24 28 22 15 17 18 14 10 12 25 43 44 39 41 35 25 24 15 7 11 11 14 29 39 38 32 17
69 77 80 83 82 70 64 68 69 66 58 56 58 48 39 45 54 52 43 42 45 44 45 48 61 68 55 64 97 102 97 102 100 97 99 101 101 80 66 80 89 89 82 70 75 70 48 64 81 64 60 64 56 60 62 41 28 33 42 38 24 24 37 34 21 20 21 20 17 10 19 38 32 20 28 28 25 30 19 6 11 12 15 27 32 33 32 22
77 82 83 87 90 84 80 80 78 69 61 64 62 48 43 48 60 65 46 38 48 49 45 39 41 63 63 54 81 103 98 99 101 99 98 101 101 87 73 77 79 79 80 83 94 76 40 51 73 60 60 74 69 65 63 53 41 30 35 45 32 21 37 46 31 22 22 24 25 17 20 35 22 5 17 26 22 23 15 6 11 14 16 21 23 26 27 20
79 86 91 92 93 97 96 89 83 75 67 69 65 54 52 45 47 62 50 35 45 48 48 44 31 45 61 51 61 90 101 100 97 100 100 97 102 97 87 91 82 61 67 91 103 84 51 49 62 58 61 77 80 75 77 77 68 49 40 46 39 23 30 43 35 27 28 32 38 34 27 33 30 16 19 22 16 18 18 12 12 15 17 19 23 27 27 21
82 87 96 99 98 101 103 96 92 84 73 73 68 60 64 55 44 58 54 33 37 43 48 56 45 36 46 49 52 68 91 101 98 99 101 97 102 101 96 104 86 52 62 96 104 91 68 53 58 65 69 77 77 73 76 77 75 70 58 49 45 34 25 31 36 37 35 35 48 52 38 41 49 36 22 16 11 17 28 25 17 13 13 17 24 29 28 24
94 92 94 101 101 99 101 100 95 88 80 78 72 61 65 62 50 54 49 34 41 44 38 53 64 53 45 48 52 59 76 94 100 100 100 98 101 100 98 104 90 65 75 100 104 88 60 40 52 72 77 76 73 71 77 76 69 70 67 55 53 48 33 27 37 48 46 40 52 60 48 45 48 33 19 16 11 11 18 19 12 9 11 14 18 22 23 23
100 98 92 96 101 99 101 100 96 94 88 81 78 72 67 59 50 49 43 42 60 57 35 37 55 61 60 54 55 68 76 81 93 101 100 98 100 100 99 101 99 90 90 101 98 72 42 34 50 71 82 80 71 67 75 81 73 67 68 63 57 54 48 39 39 53 61 53 51 54 49 44 37 23 17 19 15 10 10 10 7 7 10 12 16 23 25 26
100 101 96 96 99 100 100 101 98 98 95 87 84 82 69 53 50 57 51 47 60 61 48 43 42 47 62 59 53 73 87 79 81 95 101 100 99 99 99 99 101 100 97 96 76 44 38 50 58 72 84 78 68 66 69 79 82 71 67 71 64 56 59 55 44 49 63 65 57 50 52 55 45 30 22 18 15 13 9 6 5 5 5 6 9 16 19 23
98 100 101 98 99 100 99 101 99 97 99 95 84 79 73 56 45 53 58 50 50 56 57 56 46 41 56 61 52 65 85 80 72 83 98 101 99 99 100 100 100 100 101 94 63 36 50 70 68 73 80 72 69 71 69 81 91 76 65 74 76 65 63 64 57 52 58 67 68 58 53 54 49 49 46 26 10 9 8 5 5 4 4 4 3 6 8 11
Wind_Speed
19 18 18 18 18 18 18 18 18 17 17 16 16 16 16 15 14 14 14 14 13 13 12 11 11 11 10 11 10 8 7 8 9 12 15 13 12 11 10 12 12 13 14 13 12 13 16 20 22 21 19 18 17 17 16 16 14 13 12 10 10 7 8 12 11 8 6 3 2 1 3 5 5 7 8 8 7 5 5 6 7 5 4 4 5 5 6 7
20 19 19 18 18 18 18 18 18 18 17 17 17 17 17 17 15 14 14 15 15 14 14 12 12 12 11 11 12 10 8 8 9 10 12 13 15 14 11 14 14 13 14 14 14 15 16 20 23 24 22 20 18 18 18 17 16 14 13 11 10 8 6 10 11 9 8 5 1 2 3 5 5 6 7 8 8 6 5 6 7 5 4 4 5 6 6 7
20 20 20 19 19 19 18 18 18 18 18 17 17 18 18 18 17 15 15 15 16 16 15 14 13 13 12 11 12 12 11 9 9 9 11 14 16 16 14 15 15 15 14 14 17 18 18 21 24 25 24 23 20 20 20 18 17 16 15 11 9 9 6 9 13 10 9 6 3 4 4 5 7 7 7 9 9 8 8 8 7 5 6 7 6 6 7 7
22 22 21 21 20 20 19 19 19 19 18 18 18 18 19 18 18 17 16 16 17 17 17 15 14 14 13 13 12 12 12 11 9 9 12 13 14 17 16 16 16 16 15 14 16 18 19 20 23 26 26 25 23 22 20 19 19 17 16 12 11 12 9 10 11 10 9 4 4 4 5 6 6 6 8 10 9 9 9 9 8 6 8 9 8 8 8 8
24 23 23 22 22 21 21 20 20 20 19 19 19 19 19 19 18 17 17 17 18 19 18 17 15 15 14 14 13 13 12 12 12 10 11 12 13 16 18 19 18 17 16 14 14 16 18 18 21 25 26 26 25 24 21 19 20 19 17 15 14 13 10 9 7 8 8 3 2 5 5 4 3 7 9 10 10 10 10 9 9 7 8 9 10 10 9 9
25 25 24 24 23 23 23 22 22 21 21 21 20 20 20 20 19 18 18 18 19 19 20 19 17 16 16 15 15 14 12 13 14 12 11 12 13 15 17 20 20 19 17 14 13 14 16 18 19 21 24 26 25 24 22 21 21 20 18 17 16 15 13 10 5 6 5 3 5 5 4 4 4 7 9 9 10 10 10 9 8 7 7 9 11 11 10 11
26 26 25 25 25 25 25 24 24 23 23 22 22 21 21 21 20 20 19 19 19 20 20 20 19 18 17 16 16 16 14 12 14 14 12 12 12 14 16 19 21 21 18 15 13 13 15 16 16 18 22 25 25 24 24 24 23 21 20 20 18 17 17 17 14 12 8 5 6 5 4 5 6 7 9 10 10 9 9 8 7 7 7 9 10 11 10 11
27 27 27 26 26 27 26 26 26 25 25 24 24 23 23 22 21 21 20 19 20 20 21 21 20 20 19 18 16 17 16 12 14 16 14 12 13 14 16 18 21 22 21 18 15 14 15 15 15 17 19 22 24 25 26 26 25 23 22 22 20 19 18 18 18 16 11 7 7 6 5 6 7 7 8 10 10 9 8 7 8 8 8 9 9 10 10 11
30 29 29 28 28 28 28 28 27 27 27 26 26 26 25 24 23 23 22 21 21 21 22 21 21 21 21 20 18 18 17 13 15 17 15 14 14 14 15 17 20 22 23 21 18 17 16 16 16 17 18 20 24 26 27 28 26 24 24 24 23 21 18 17 17 15 12 10 9 8 7 8 8 7 8 11 13 11 9 9 10 10 10 9 8 10 12 12
33 32 32 31 30 30 30 29 29 29 28 28 28 28 28 26 25 25 24 23 22 22 22 22 22 22 23 22 19 20 19 15 16 17 16 16 16 15 15 16 18 21 23 23 21 18 17 17 18 20 21 23 25 26 28 29 26 25 27 27 25 23 20 18 18 16 14 12 10 10 9 8 8 7 9 11 12 12 10 9 10 9 9 8 8 11 13 12
34 34 34 34 33 33 33 32 31 31 30 30 30 30 30 29 28 27 26 25 23 24 23 23 22 22 24 22 21 23 22 18 16 17 17 17 17 17 15 15 17 20 23 24 23 20 19 20 22 24 23 23 24 26 27 27 26 27 27 27 25 24 22 21 19 17 15 13 11 11 10 9 9 7 9 10 11 13 11 9 8 8 8 8 9 10 12 12
36 36 35 35 35 35 35 35 34 34 32 31 31 32 32 32 31 30 29 28 26 25 25 24 23 23 24 21 23 27 23 19 18 18 19 18 18 19 17 16 17 18 21 24 25 24 22 23 25 25 23 23 25 24 25 24 25 27 27 25 23 23 23 22 21 19 16 14 12 12 11 10 9 8 11 11 11 13 12 9 8 7 8 8 9 10 11 12
36 37 37 37 36 36 36 36 36 36 36 35 33 33 33 33 33 33 33 31 30 28 27 26 24 25 23 20 26 28 22 21 21 19 20 19 19 20 19 18 17 18 20 22 26 27 26 25 26 26 24 25 26 25 26 26 27 28 27 25 23 22 22 21 22 20 17 15 13 13 12 10 9 9 12 13 12 13 12 11 9 7 7 8 9 10 11 12
36 37 37 37 37 37 37 37 37 37 38 37 36 36 36 35 35 35 35 34 33 32 30 29 27 26 22 20 28 28 23 25 23 21 22 21 21 21 20 20 18 18 19 22 25 28 29 28 27 27 26 26 26 26 28 29 28 27 27 27 24 21 19 20 22 20 18 16 14 14 13 9 8 10 13 13 13 13 12 12 10 9 9 8 8 9 10 12
36 37 37 37 37 37 38 38 38 39 39 39 38 38 38 38 37 36 36 36 36 35 34 33 30 29 24 23 29 27 25 26 24 25 25 23 23 22 21 22 20 20 20 21 24 27 30 30 29 28 27 27 27 27 28 28 27 28 28 26 24 21 18 19 22 20 18 17 16 16 13 10 9 12 15 15 14 14 13 13 13 10 10 9 8 8 10 12
37 37 37 37 37 37 37 38 38 39 39 40 40 39 39 40 40 39 38 37 37 37 37 36 34 32 28 26 28 27 27 26 27 29 28 25 25 24 24 24 23 22 21 22 23 25 28 30 30 29 28 28 28 27 28 26 25 27 27 25 23 20 19 20 20 20 19 18 18 17 14 13 12 13 15 14 13 14 14 13 14 12 11 10 8 9 10 10
37 37 37 37 37 37 37 37 38 38 39 40 41 40 40 41 42 41 41 40 39 38 38 38 37 36 32 29 29 30 30 27 28 29 27 27 27 26 26 25 24 24 23 24 24 24 27 29 31 31 31 30 28 29 28 24 23 25 24 22 21 19 20 20 17 18 21 21 19 18 17 15 15 15 14 14 13 14 14 13 14 13 13 12 9 10 10 9
38 38 38 38 39 38 38 38 37 38 38 39 40 41 41 41 43 43 42 43 42 41 40 40 39 38 36 33 32 33 32 28 28 28 28 29 30 29 28 27 26 26 26 26 25 24 25 26 30 32 32 31 29 29 25 18 20 23 21 20 20 20 20 19 15 16 19 21 21 20 19 18 16 16 16 16 14 15 14 14 14 12 13 13 11 11 9 8
39 40 40 40 40 40 40 40 39 39 38 38 39 40 40 40 43 44 43 43 44 44 43 42 40 39 39 37 35 35 34 32 30 28 28 29 30 31 30 29 28 27 28 28 26 25 25 26 29 29 30 31 29 27 22 19 20 21 21 21 21 21 19 17 16 17 17 19 22 22 21 20 19 17 18 18 16 16 15 16 15 10 12 13 12 12 10 8
42 42 42 42 43 42 43 42 42 41 40 39 39 40 41 40 42 44 43 43 44 45 46 46 41 39 41 40 38 38 37 35 33 31 30 30 31 32 32 32 31 30 29 28 27 27 28 28 26 23 26 28 29 27 24 24 23 21 23 21 19 20 18 16 18 20 20 19 21 23 22 21 20 19 19 18 17 17 16 16 16 13 12 13 13 13 11 8
44 44 44 45 45 45 45 45 44 44 43 42 41 41 42 42 42 43 44 43 44 45 46 47 46 42 42 42 41 40 39 38 36 34 33 33 34 34 33 32 33 31 28 28 29 30 32 28 21 20 24 27 29 29 28 28 26 25 26 20 17 20 18 16 19 21 22 19 19 23 24 22 20 19 19 19 17 16 17 17 18 16 13 13 15 14 11 9
46 47 47 47 47 47 47 48 47 47 46 46 45 44 44 44 44 43 44 43 42 45 46 46 48 45 42 44 44 42 41 40 38 38 36 35 36 35 32 32 34 31 28 32 32 33 32 24 18 21 24 27 30 31 31 30 27 28 29 24 22 20 17 18 20 21 22 21 19 21 24 24 22 21 20 21 19 19 19 18 20 20 15 14 16 15 12 12
48 48 48 48 49 49 49 49 50 50 49 49 49 48 47 47 47 45 45 43 40 42 46 45 46 47 44 46 47 45 42 41 41 41 40 39 37 35 33 32 33 31 31 35 34 32 28 20 20 23 24 26 30 31 32 32 30 30 32 30 26 22 19 20 21 23 23 21 20 20 22 24 25 25 24 23 22 20 20 19 22 24 19 15 18 18 15 14
48 49 49 49 50 51 50 50 51 52 52 52 52 52 52 50 51 49 47 46 40 38 43 45 45 47 44 44 48 48 44 43 44 46 44 41 38 36 35 33 33 33 34 34 33 31 25 21 24 27 26 27 28 31 33 33 33 32 33 32 28 26 25 22 20 24 25 22 22 20 20 25 27 26 25 24 23 22 22 21 23 26 24 19 18 19 17 16
51 52 52 52 53 54 54 53 54 54 53 53 53 53 54 54 54 54 50 49 43 37 40 45 46 45 43 45 50 50 47 45 45 48 47 42 39 39 39 37 35 36 36 34 34 32 27 27 30 30 29 28 29 31 33 33 33 34 34 31 30 29 26 24 21 22 26 25 24 23 23 25 28 27 26 24 23 23 22 22 22 25 26 22 18 19 20 18
55 55 56 56 57 58 58 58 59 60 58 57 57 55 54 54 55 56 54 53 48 42 43 44 45 45 44 46 48 49 50 48 46 49 49 44 42 42 42 41 38 37 36 34 35 34 31 31 33 32 30 29 30 31 32 34 35 35 34 31 31 33 31 27 22 21 26 25 23 25 26 26 28 28 27 25 24 23 22 23 24 24 26 26 21 20 19 17
56 56 58 59 60 60 61 61 61 63 63 62 62 59 57 55 54 54 56 55 51 50 50 47 47 47 45 46 47 48 51 49 47 49 50 47 44 44 45 44 41 38 37 36 37 37 34 33 34 33 31 31 32 32 31 33 35 35 33 32 33 34 34 33 27 23 27 24 22 25 25 26 27 26 25 27 27 27 25 24 25 25 26 27 23 20 19 18
55 55 55 57 60 61 61 61 61 61 63 64 64 64 62 59 56 53 53 53 50 52 55 52 51 49 48 48 47 46 48 48 48 48 50 49 46 45 47 46 43 40 38 38 39 36 33 33 35 34 33 34 33 31 31 33 35 34 33 34 35 35 36 35 34 29 26 26 28 30 27 25 25 23 24 27 28 28 26 22 24 27 27 26 25 22 21 21
52 51 51 51 54 56 57 58 58 56 58 61 62 63 64 63 61 55 51 51 47 47 53 55 54 53 53 52 49 46 46 48 49 47 49 51 48 46 48 46 45 43 41 41 40 36 34 35 35 35 36 36 33 31 32 34 34 33 35 36 36 36 34 36 39 35 29 32 36 31 26 25 24 22 23 27 28 27 27 22 22 27 26 23 25 23 21 22
47 46 46 46 47 50 51 53 55 54 55 57 58 60 62 62 62 58 54 51 43 39 46 51 51 52 53 54 53 50 48 48 48 47 50 53 50 47 48 47 47 46 44 44 43 40 37 37 37 38 39 36 32 32 34 35 33 34 36 37 37 36 36 38 42 41 38 40 40 34 29 30 30 26 21 24 28 26 27 25 22 26 24 19 24 24 20 21
44 44 44 44 45 46 47 50 53 55 57 59 59 60 59 58 59 58 54 50 40 35 41 48 53 57 56 55 56 54 51 50 49 48 51 55 55 52 51 52 51 50 49 49 47 43 40 42 42 41 40 37 34 35 36 35 35 36 36 36 38 40 39 38 39 43 47 48 44 38 37 37 33 28 22 21 26 26 27 28 23 25 24 20 25 27 20 21
42 43 44 44 44 45 47 50 53 55 59 62 61 58 56 55 55 55 50 43 36 35 43 51 58 64 63 60 58 56 54 53 51 52 53 56 57 55 54 55 54 53 52 51 50 46 43 43 44 43 41 38 37 38 39 39 39 38 37 38 40 39 39 40 43 48 50 49 47 43 42 40 33 28 26 25 29 29 28 28 25 27 29 26 28 29 25 24
42 43 43 43 43 44 46 50 52 56 60 61 58 51 48 47 46 47 40 31 32 37 46 54 60 64 65 62 60 58 56 53 51 53 54 55 56 55 54 54 54 54 51 50 51 48 44 43 44 43 42 39 39 41 42 43 42 40 40 40 39 40 42 46 48 48 48 47 45 43 42 39 34 31 29 28 31 30 26 24 24 29 32 26 24 27 28 28
41 41 41 42 42 43 46 49 52 57 60 58 53 43 39 37 31 28 25 27 34 42 51 56 58 61 63 60 58 59 58 54 51 52 54 56 57 56 55 54 54 54 52 51 52 50 47 47 45 44 44 42 42 43 42 42 41 40 41 39 39 43 44 44 43 43 45 45 42 41 40 35 33 32 30 29 31 30 27 25 23 27 29 23 21 24 29 31
40 40 41 42 43 45 47 49 52 56 57 54 47 37 28 22 12 12 21 33 41 47 54 57 57 58 60 58 55 55 57 55 51 51 54 57 58 57 56 55 54 55 54 53 52 51 50 48 45 43 44 44 43 43 40 41 43 42 42 41 40 41 41 40 39 37 38 39 40 41 37 32 32 33 30 28 29 28 27 28 25 25 28 26 24 25 28 31
40 41 43 44 45 46 47 48 51 54 55 51 41 31 19 11 13 18 29 34 40 48 55 57 56 55 53 50 45 43 47 48 44 45 51 55 57 56 54 54 54 55 56 55 53 51 51 49 46 45 45 45 45 43 41 43 44 43 42 42 40 38 37 39 35 30 30 33 37 40 38 32 30 30 29 27 25 24 24 26 24 24 29 30 25 24 26 30
42 43 44 44 44 46 46 46 49 51 52 47 34 26 19 15 22 31 34 32 36 47 57 59 55 51 48 42 38 37 40 40 34 31 37 47 53 53 52 54 54 55 56 55 52 50 50 48 48 49 47 45 46 43 42 45 44 43 43 40 38 38 39 39 35 29 29 30 31 33 33 31 27 24 24 22 20 20 22 24 22 23 29 31 26 23 24 26
44 44 44 44 44 45 44 43 46 48 46 40 31 25 23 21 23 29 34 35 36 41 52 59 57 53 50 47 47 47 45 43 37 29 27 34 44 47 48 48 50 55 57 55 53 50 48 42 40 46 48 46 48 44 42 46 46 43 42 39 38 42 42 40 37 33 31 29 28 26 24 24 23 21 19 19 18 19 22 25 23 23 29 32 29 25 23 24
44 45 44 42 42 43 42 41 43 44 40 35 30 27 25 23 23 26 30 34 36 36 45 56 58 54 49 49 54 54 51 49 46 41 32 24 30 38 40 42 44 48 52 55 55 51 47 38 29 36 44 45 49 49 45 48 48 44 41 40 40 42 41 39 37 35 32 28 25 26 25 24 23 23 20 17 19 21 23 26 27 27 30 32 31 29 26 24
43 44 42 41 41 41 40 39 40 40 37 31 27 27 28 26 24 26 26 27 31 34 40 50 57 56 49 48 54 57 58 56 52 49 43 31 31 39 41 42 45 47 50 56 59 55 48 41 32 29 34 41 51 54 50 47 49 49 46 43 42 42 41 39 37 37 36 29 21 19 21 18 17 23 22 19 20 22 24 26 28 30 32 33 33 31 28 25
41 41 40 40 40 38 38 38 38 37 33 29 27 27 28 25 24 26 27 25 26 28 33 40 49 55 52 49 55 59 60 60 57 54 52 45 41 46 47 46 47 52 56 60 63 61 50 41 38 33 30 39 50 53 50 45 45 49 48 46 45 43 41 42 40 38 38 36 26 17 11 10 12 16 17 18 21 21 23 26 27 29 30 31 32 31 28 25
40 40 39 37 36 36 36 36 36 34 30 28 26 25 25 24 22 24 26 26 25 24 26 31 39 51 55 54 55 58 59 61 62 59 60 57 48 47 50 49 48 51 56 59 62 66 56 40 37 38 33 34 43 46 49 48 43 44 47 46 46 45 42 41 41 39 38 38 34 24 14 13 19 19 17 20 24 21 23 26 26 26 26 26 30 29 26 27
39 40 39 36 34 34 35 34 33 31 28 25 23 23 24 24 21 22 23 27 28 26 26 27 32 42 53 58 57 56 58 62 63 61 63 62 54 52 53 50 50 51 55 58 57 60 61 47 38 42 39 31 36 39 44 48 44 42 46 47 47 46 43 40 38 37 37 37 36 32 22 17 23 24 22 25 25 20 23 25 24 25 24 24 27 25 25 28
38 39 39 38 34 33 34 33 31 28 25 22 21 21 23 22 20 19 20 24 28 29 30 31 31 34 46 61 62 56 57 62 62 59 59 58 56 61 62 56 54 56 58 61 56 55 63 57 45 47 46 37 37 38 40 47 48 45 46 48 48 45 40 39 38 35 36 36 35 35 27 20 27 30 29 29 23 19 24 26 23 24 23 23 26 26 27 28
38 39 39 37 34 32 33 32 29 27 23 20 19 19 21 20 19 19 20 21 23 25 28 31 34 32 38 59 68 59 55 59 59 53 51 52 57 66 70 64 60 61 62 64 61 58 65 65 56 54 52 44 42 43 41 47 51 48 46 47 49 46 39 39 39 37 37 35 34 35 29 25 34 34 27 27 23 20 24 24 23 25 24 24 28 29 28 26
40 40 40 38 34 33 33 31 28 26 22 19 18 17 18 19 18 19 21 21 19 19 22 27 34 33 34 54 72 65 55 55 56 51 45 47 56 66 71 69 66 67 65 62 63 62 65 70 68 62 56 46 41 41 36 38 46 48 48 47 49 48 41 37 40 40 37 34 32 32 28 28 36 33 24 21 20 20 21 22 26 28 28 27 30 29 27 26
42 42 42 39 34 33 32 29 28 25 21 19 17 16 17 18 18 18 20 21 18 16 17 21 29 32 32 47 68 71 62 57 54 50 43 42 52 63 68 69 70 72 67 61 64 65 64 69 71 66 59 49 42 40 34 32 36 42 44 45 47 49 45 41 43 41 36 34 30 27 27 27 30 32 28 22 18 19 20 23 29 33 31 30 31 30 28 27
43 44 44 41 37 34 30 27 26 24 19 17 17 16 16 17 18 18 20 20 18 15 15 16 20 28 31 41 60 68 66 62 56 48 41 41 48 57 62 67 72 75 69 64 66 69 67 69 70 66 60 53 47 43 39 38 34 33 37 41 42 47 48 46 43 39 37 35 28 25 27 27 26 31 32 26 21 21 23 27 33 37 36 33 32 32 31 29
44 45 44 41 38 34 29 26 25 23 18 15 16 16 16 17 18 19 19 18 16 15 15 16 16 21 26 33 49 57 59 63 59 46 39 39 43 48 53 61 71 75 71 68 69 72 71 70 70 67 59 54 50 44 40 42 39 32 33 37 38 41 46 47 42 36 37 36 30 28 30 32 31 34 33 28 26 25 27 31 36 37 37 34 33 33 32 29
45 45 44 42 38 34 29 26 24 21 16 14 15 15 15 17 18 19 19 17 16 17 16 16 17 19 21 25 37 45 49 60 62 49 39 37 38 39 44 54 67 74 74 73 73 74 73 70 70 69 63 57 55 50 44 44 44 37 32 33 36 36 39 43 41 36 34 35 33 31 31 32 34 36 34 31 30 30 30 32 35 37 36 34 34 34 33 31
46 46 45 43 39 34 29 26 24 21 16 13 13 14 15 18 18 18 19 17 15 17 16 15 16 19 20 21 30 36 40 54 65 57 44 37 34 32 35 46 61 72 74 75 76 75 73 70 69 70 70 67 61 54 48 45 44 42 36 31 33 35 34 37 41 40 36 35 34 33 31 31 33 37 37 35 34 36 36 34 33 35 36 35 36 37 37 35
47 46 45 45 41 33 28 25 23 20 17 14 13 14 15 17 18 17 17 16 15 16 15 15 15 16 19 20 25 32 35 47 63 64 52 40 33 29 28 36 53 67 72 74 76 76 74 73 71 72 74 73 66 58 50 46 46 49 44 36 34 36 33 33 37 40 38 33 30 33 36 35 34 31 31 36 39 38 36 34 32 33 34 33 32 32 34 35
Wind_Direction
300 301 302 301 300 300 298 297 295 293 292 290 287 284 281 279 279 281 282 283 283 282 282 281 279 278 278 280 281 275 264 257 248 241 242 237 232 231 216 217 221 221 223 219 216 215 210 205 206 210 208 210 213 214 217 218 219 222 218 206 195 193 201 196 189 184 167 166 221 245 274 278 288 296 294 282 276 270 261 263 263 260 247 236 242 235 230 225
296 296 297 298 297 296 295 294 294 293 292 291 288 284 281 278 276 276 278 279 279 279 279 278 279 277 274 271 273 276 270 258 250 245 245 236 230 229 219 221 224 223 223 215 212 213 212 208 207 210 209 210 211 212 214 216 218 221 224 219 206 200 214 211 194 186 184 171 211 235 259 275 281 293 293 281 280 277 256 260 266 257 249 248 245 234 230 227
293 293 293 294 293 292 291 291 291 291 292 291 289 285 282 279 276 274 273 275 275 275 275 275 276 276 275 269 265 269 271 264 254 247 244 236 232 228 221 223 226 228 228 219 213 211 209 208 208 209 210 210 210 213 213 214 218 221 225 224 217 213 225 209 182 182 196 171 172 225 264 270 269 278 278 273 277 278 271 272 273 270 268 258 247 237 232 229
291 291 290 290 290 290 288 288 289 289 290 290 288 286 284 282 279 274 271 270 271 271 272 272 272 272 273 270 265 261 263 267 260 246 245 243 236 230 222 223 228 231 234 228 221 217 214 211 209 210 211 211 210 213 214 214 217 221 222 222 223 218 227 222 188 188 206 158 141 212 249 248 255 269 268 269 272 277 281 284 279 281 277 261 254 245 234 228
291 290 289 289 288 288 286 285 286 287 288 287 286 286 285 284 282 278 273 268 267 268 270 269 268 269 269 269 268 261 257 261 260 251 250 248 240 234 226 224 229 233 236 234 228 225 222 217 214 213 213 213 213 214 213 214 217 219 221 222 227 226 233 234 194 191 205 173 190 225 240 232 244 266 264 268 273 272 275 283 282 281 277 264 258 249 236 228
290 290 289 288 287 285 284 283 283 283 284 285 285 284 284 284 283 281 276 270 266 265 266 267 266 266 266 266 267 266 258 254 258 254 250 248 243 238 231 226 230 234 236 238 235 228 225 222 220 218 217 217 217 216 214 216 218 218 222 225 228 230 234 240 232 230 228 219 229 233 254 263 269 267 266 268 271 271 270 276 283 285 282 271 263 251 240 236
289 289 288 287 286 284 282 281 280 281 281 282 282 282 282 282 282 281 278 275 271 266 264 264 264 263 263 262 263 265 261 255 257 253 247 247 244 240 234 229 230 235 237 236 234 227 224 223 222 222 220 220 219 218 217 219 221 219 223 227 230 231 237 250 257 257 255 242 244 250 262 270 269 266 276 275 266 271 275 274 280 286 281 272 264 253 246 246
288 287 286 286 285 283 282 281 279 278 278 279 279 279 280 279 279 279 278 276 273 270 266 263 262 261 261 260 259 262 261 257 256 253 248 245 243 240 238 232 229 232 235 234 230 224 220 216 218 223 222 222 220 218 218 220 222 221 223 229 233 234 238 249 257 260 263 254 249 248 243 257 261 261 276 277 269 271 275 271 276 277 268 266 263 255 252 252
287 286 285 285 284 283 282 280 279 278 277 276 276 276 276 276 276 276 276 275 273 272 269 266 262 260 259 259 257 259 256 253 256 254 250 246 243 241 239 237 231 230 232 233 230 222 215 209 212 220 220 221 221 218 219 221 222 222 224 228 231 235 239 246 252 258 259 251 244 239 230 240 252 256 264 271 271 271 267 267 272 270 264 266 263 258 256 251
286 285 284 283 283 282 281 280 279 277 276 275 274 274 273 273 273 273 273 272 271 271 270 268 265 261 260 258 257 258 252 245 253 255 250 246 245 242 238 237 234 231 230 231 231 224 216 212 211 216 216 218 219 219 221 221 221 223 226 229 230 232 237 243 248 252 251 247 240 235 229 235 248 254 257 261 265 268 264 260 263 261 260 263 263 259 256 249
287 285 284 283 282 281 280 279 278 277 276 274 273 272 272 271 270 270 270 270 269 269 269 268 267 264 260 258 258 257 251 243 246 252 251 247 246 243 238 236 234 233 231 229 230 227 219 216 215 217 215 217 221 221 224 224 222 225 228 230 231 231 233 238 245 249 247 243 236 233 232 235 241 246 254 256 261 269 268 256 250 255 259 257 258 255 251 250
287 286 285 283 282 281 279 278 277 276 275 274 273 271 271 270 269 268 267 267 267 266 267 266 265 264 262 260 258 254 251 248 246 247 249 246 245 245 240 236 233 232 232 229 228 227 223 219 219 220 217 218 223 223 226 227 225 228 230 231 231 229 229 234 241 243 241 237 230 229 230 233 235 239 250 254 260 268 271 258 239 247 260 254 256 256 249 247
286 285 284 283 282 280 279 278 276 275 274 273 272 271 270 269 268 267 266 265 264 264 264 264 264 262 262 261 257 254 253 252 248 245 246 245 244 244 242 239 234 231 231 230 227 226 225 224 223 223 219 219 223 222 224 225 225 228 230 230 231 229 228 231 237 238 236 232 227 229 228 230 238 241 247 252 257 264 270 264 242 242 259 255 261 266 257 247
287 285 284 283 281 280 278 277 275 274 273 271 270 270 269 268 267 266 265 264 263 262 262 262 262 261 261 259 258 258 254 251 250 248 246 245 243 242 242 242 237 231 229 229 228 227 226 226 226 225 221 221 223 222 225 226 225 227 229 230 232 231 227 228 235 237 235 230 224 227 226 224 233 236 241 250 255 258 264 265 251 246 258 256 255 261 264 261
289 287 286 284 282 281 279 277 275 274 272 271 268 267 267 267 266 265 264 263 262 261 260 260 260 260 258 256 258 260 256 252 251 249 245 244 244 241 241 242 238 232 228 227 228 228 228 227 228 228 226 224 224 223 226 229 226 226 229 231 233 233 227 227 232 235 235 231 225 223 219 217 218 224 236 245 250 253 253 257 253 245 255 256 252 260 269 271
291 290 288 286 284 282 280 278 276 274 273 271 268 266 265 265 264 263 263 262 261 259 259 259 258 258 255 253 259 261 256 251 248 247 246 245 245 243 241 241 240 236 231 229 227 228 230 229 229 230 229 227 227 227 229 230 227 227 229 232 234 233 228 226 229 232 233 230 226 221 215 218 216 218 239 243 240 248 245 250 256 251 250 247 249 263 263 261
294 293 291 290 288 286 283 280 277 275 273 272 270 267 265 264 262 261 261 261 260 258 257 257 256 256 254 252 253 255 253 250 249 249 248 246 245 243 242 240 240 238 234 230 228 227 229 230 229 229 230 229 228 229 230 230 229 230 231 232 234 233 229 226 226 229 231 231 226 220 216 222 221 219 240 246 236 241 241 245 254 258 260 255 253 258 256 256
294 293 292 291 290 289 287 285 282 278 276 273 272 269 266 265 262 260 259 259 259 257 256 255 254 254 253 250 249 252 254 252 250 250 248 246 244 243 242 240 238 237 236 233 230 228 228 229 230 229 230 229 228 230 231 229 231 234 234 235 235 236 234 230 227 227 230 230 225 219 217 221 220 218 233 245 242 239 241 242 243 255 269 264 264 264 259 257
292 291 290 290 289 288 287 286 285 282 280 277 274 272 268 266 264 260 258 258 257 257 256 253 253 253 253 251 249 250 252 251 250 249 248 248 245 242 241 240 238 237 236 235 233 231 229 228 228 229 230 230 229 231 233 232 231 231 234 235 234 234 234 229 228 228 224 224 223 219 219 224 221 219 228 236 239 238 242 247 243 247 261 264 273 273 263 251
290 289 288 287 286 286 285 284 283 282 281 279 277 276 272 267 265 262 258 258 257 256 255 254 252 251 252 250 247 247 248 249 249 247 245 245 245 242 239 239 238 236 236 237 236 234 232 229 227 229 232 232 231 230 230 231 229 223 226 230 233 236 232 225 229 230 222 219 223 220 219 227 229 227 229 229 232 236 241 252 252 247 253 259 260 256 252 242
289 288 287 286 285 284 283 282 281 279 279 278 277 275 274 271 268 264 259 257 257 256 255 254 252 248 251 250 247 247 246 247 247 245 243 243 244 243 239 238 238 237 236 238 237 235 234 230 226 230 231 231 230 229 227 227 225 222 224 224 227 237 236 226 228 231 224 217 224 225 219 223 230 233 233 230 235 240 238 248 256 257 256 253 251 254 261 254
288 287 286 284 283 282 281 280 279 278 277 276 275 273 272 272 270 267 262 257 257 257 254 254 253 249 249 250 248 245 245 245 246 246 244 243 244 245 242 239 240 238 235 237 236 235 235 230 226 231 229 227 226 226 226 226 222 220 224 221 213 222 236 237 236 236 229 220 224 228 223 222 225 228 232 235 241 243 240 248 257 258 253 247 252 258 261 254
287 286 284 283 281 280 278 278 276 275 274 274 273 272 270 270 269 268 266 260 256 256 256 253 253 251 249 249 248 245 243 243 244 244 242 241 242 244 243 240 241 238 234 236 237 237 236 228 229 232 228 225 223 222 224 225 222 217 221 223 213 205 213 230 247 251 237 225 227 231 230 226 224 225 229 233 236 237 239 245 252 255 251 243 249 252 247 244
291 288 287 285 283 281 278 277 276 274 272 271 270 270 269 268 267 267 267 264 257 254 256 254 251 251 250 250 248 245 242 240 241 242 241 239 239 241 242 239 239 238 235 236 239 238 233 225 227 228 225 223 221 221 221 223 223 219 218 221 218 208 198 200 228 251 252 241 232 232 234 228 223 225 228 232 234 236 238 238 240 249 252 247 245 249 249 246
297 295 292 290 290 288 283 281 279 277 274 271 268 267 266 265 265 264 265 265 261 254 253 255 253 250 249 249 247 245 243 239 239 242 241 239 238 238 240 239 236 236 235 234 237 237 229 226 227 225 223 220 219 219 219 220 222 222 219 217 217 215 203 192 201 231 249 249 234 227 235 235 229 227 230 233 235 235 237 238 236 240 250 250 238 240 250 251
304 302 299 297 296 295 292 288 285 282 279 276 272 268 266 263 262 262 262 262 262 257 251 252 253 251 248 248 247 245 243 239 238 241 241 238 235 236 237 237 235 235 236 233 235 234 227 226 227 226 225 222 221 220 217 218 220 221 220 217 216 215 210 201 198 218 239 251 250 237 236 240 237 234 234 234 236 238 238 240 240 236 240 244 236 234 248 255
310 309 307 304 301 299 298 295 291 287 284 280 276 272 269 265 262 260 259 258 259 256 251 247 247 248 248 247 246 244 243 240 238 240 241 238 233 234 236 237 235 233 235 232 231 231 227 227 229 227 227 225 223 221 219 218 220 221 218 217 218 217 213 203 194 212 233 248 261 252 244 244 242 237 235 233 236 241 241 236 240 240 238 242 243 238 243 250
315 314 314 311 307 304 302 299 296 293 289 284 279 275 271 268 264 260 257 254 253 253 251 247 243 242 244 244 243 244 243 241 237 237 241 239 233 232 235 237 236 233 233 235 234 232 229 230 232 230 229 229 225 222 221 221 221 220 217 217 218 218 219 210 199 204 217 227 239 251 263 262 247 236 233 235 237 241 243 231 229 241 244 245 247 243 241 245
319 319 319 317 314 311 308 305 302 300 295 288 282 277 272 268 265 262 257 251 249 250 249 247 244 239 239 241 241 240 240 239 237 234 237 238 232 230 233 234 235 232 231 234 234 230 228 228 230 230 230 230 228 223 223 224 222 220 218 217 217 218 221 219 214 212 212 214 215 226 253 261 249 241 241 243 243 245 247 233 223 241 249 245 244 242 237 240
323 323 323 322 321 319 317 314 310 308 303 296 290 281 274 269 265 263 259 251 244 243 242 241 240 237 235 236 238 237 236 237 237 233 233 236 231 227 228 230 231 231 229 231 232 227 225 225 226 228 229 228 226 224 224 225 223 221 221 219 216 218 218 219 221 220 222 223 212 202 214 229 236 241 244 252 253 249 247 242 232 238 242 238 244 244 232 231
326 325 325 324 323 324 323 322 320 317 313 308 301 291 281 274 267 262 259 252 242 234 233 234 234 233 232 230 232 233 233 233 235 233 231 232 230 225 223 224 225 227 226 227 229 226 221 222 222 224 226 224 221 223 224 224 223 222 221 219 217 218 218 219 222 223 226 230 226 215 210 217 230 233 226 240 250 246 245 246 232 226 235 240 246 250 242 232
326 325 325 325 325 326 326 324 322 320 316 312 308 300 290 281 272 265 261 253 240 226 223 229 232 233 233 231 230 230 230 230 231 233 232 231 230 227 224 225 224 225 226 226 227 225 222 223 224 223 223 222 219 220 222 222 222 222 220 219 218 219 220 221 222 224 228 231 232 230 225 229 241 238 223 224 238 244 248 247 231 229 246 249 245 252 253 243
326 325 324 325 326 326 324 322 322 320 318 316 312 305 295 286 276 269 262 244 231 222 217 223 228 230 232 232 231 229 228 229 228 231 234 232 231 228 226 227 225 226 229 229 229 227 225 225 226 226 224 222 221 220 222 224 223 221 222 220 217 216 218 223 224 226 231 233 233 233 234 241 248 245 234 229 236 243 245 242 233 240 251 247 241 250 252 247
326 325 325 325 324 323 322 323 324 323 324 324 319 309 294 282 271 264 250 222 219 217 212 217 221 225 229 228 227 227 225 225 224 226 231 232 231 228 225 224 224 225 226 227 228 228 226 226 226 227 226 223 223 223 223 227 227 224 223 222 219 219 223 228 230 230 232 234 236 236 238 245 249 247 244 239 240 241 237 235 236 245 251 243 240 249 249 248
326 326 324 323 322 323 323 324 326 329 332 332 327 314 293 272 258 254 238 221 217 215 212 213 214 219 225 225 224 224 224 222 218 219 225 230 231 229 227 225 222 222 222 223 226 227 227 228 228 228 229 226 223 224 224 226 229 226 224 224 223 224 228 231 235 238 239 239 240 241 244 248 248 248 249 245 244 243 236 233 234 242 248 241 237 244 244 245
324 324 322 322 323 323 324 326 329 333 338 338 331 319 295 240 200 228 240 228 215 212 212 210 207 210 218 221 219 218 221 220 213 214 220 225 230 229 227 225 223 222 222 221 223 226 226 227 227 226 228 229 225 222 222 225 228 228 226 226 226 227 228 228 231 237 240 239 240 243 247 251 251 249 249 247 244 242 239 235 228 227 237 241 236 234 237 240
322 322 322 322 322 322 324 328 332 335 341 342 335 321 300 250 218 226 236 231 215 210 210 205 200 201 205 205 202 203 209 207 201 211 222 225 228 228 226 225 223 222 222 220 220 223 225 227 228 227 226 230 230 223 221 225 228 231 232 229 227 227 226 224 223 226 232 235 238 243 248 252 254 249 243 242 237 235 239 238 225 213 224 239 243 234 223 225
321 322 323 323 321 322 325 331 334 337 343 344 335 321 305 276 249 241 242 238 225 214 211 207 200 198 199 193 188 189 196 195 189 196 215 226 229 228 226 225 224 222 220 219 217 218 221 225 229 231 228 229 232 226 220 223 226 230 235 233 228 227 229 227 223 222 228 232 234 238 240 240 250 253 240 233 227 223 230 233 222 210 218 234 245 238 218 210
323 323 324 324 323 325 327 333 337 338 341 343 335 323 309 287 269 261 256 249 241 229 220 214 206 200 200 195 187 184 187 188 186 189 193 210 229 229 224 221 221 221 219 219 217 213 215 217 220 232 232 230 233 227 218 220 222 222 226 230 229 229 232 235 231 226 226 229 231 235 234 228 235 247 243 232 226 223 228 231 223 215 218 227 235 237 231 223
325 325 326 326 326 327 329 333 337 337 338 341 336 323 311 297 279 269 265 260 255 245 232 224 214 205 203 198 188 184 184 182 182 186 183 187 215 225 223 217 214 214 214 215 214 209 209 210 208 220 230 230 230 225 217 217 221 220 220 223 226 226 227 231 232 228 225 224 225 232 241 244 242 247 252 251 241 227 227 234 229 224 225 228 232 237 240 234
327 326 327 329 328 328 330 332 335 337 336 336 333 325 317 305 286 273 268 265 262 255 246 237 225 214 209 200 189 185 184 181 179 181 179 181 199 212 215 215 211 212 212 212 210 206 205 208 205 201 211 225 229 225 220 218 222 225 223 222 226 226 223 225 227 227 225 221 217 212 223 248 245 237 239 247 245 226 221 232 232 230 232 234 238 242 244 239
327 326 327 330 328 327 329 330 332 334 332 331 331 328 323 313 294 277 272 268 265 260 254 247 236 224 214 202 191 184 183 183 180 179 181 183 190 199 205 209 208 210 213 213 210 205 199 203 209 199 196 220 234 231 224 221 222 227 226 224 227 229 227 226 225 226 226 223 220 212 205 228 236 228 215 225 235 223 217 228 232 230 228 229 240 246 247 244
327 327 327 328 327 325 327 329 329 328 327 329 331 329 327 321 304 288 278 271 265 260 253 246 242 233 218 205 194 184 182 183 181 182 186 186 186 190 196 203 205 206 210 212 212 206 198 197 203 197 187 203 230 235 231 225 220 223 225 222 225 229 232 230 225 226 229 227 223 215 207 223 234 228 223 227 231 225 220 224 229 232 224 219 233 240 241 244
326 328 327 328 327 324 325 326 325 324 323 324 325 327 331 327 314 303 292 279 268 260 253 243 240 238 222 208 198 187 183 184 183 185 189 187 185 187 190 196 200 203 206 208 208 206 201 197 199 196 186 187 210 222 227 225 218 217 221 221 220 222 229 232 227 226 228 228 228 218 207 223 234 224 223 231 231 228 229 223 221 232 226 215 226 233 236 245
327 327 326 326 324 321 321 323 322 321 320 319 317 321 330 328 317 314 311 296 279 265 255 242 236 236 223 210 204 196 187 186 187 190 191 186 183 186 190 192 196 200 204 205 206 206 201 199 201 199 188 185 201 212 218 220 216 212 214 220 220 214 218 227 226 224 226 226 230 223 208 221 237 229 226 237 234 228 231 220 214 230 228 217 226 232 234 241
328 327 325 324 322 318 318 319 320 320 317 314 312 315 327 326 314 315 318 309 293 275 260 244 233 232 223 212 211 206 197 194 194 193 190 184 183 187 190 191 194 199 201 201 205 209 204 200 202 199 189 188 200 212 218 221 221 216 210 215 221 213 207 218 224 223 225 224 228 227 211 215 235 236 231 238 228 215 217 206 205 223 227 224 231 234 233 239
328 328 326 323 319 315 315 316 318 319 313 308 308 310 318 320 313 316 321 314 301 281 264 249 235 231 225 214 215 215 210 207 202 194 187 182 184 189 191 191 195 198 197 197 203 210 208 203 203 200 193 190 197 206 209 209 219 224 213 210 220 218 206 211 222 222 222 222 222 222 212 211 230 238 233 229 216 202 201 198 202 216 223 224 230 234 237 243
328 328 325 320 316 313 314 314 315 316 312 305 304 307 311 317 318 320 323 319 310 291 268 255 238 231 226 216 217 221 220 216 207 196 187 181 185 192 192 192 196 197 194 195 201 207 209 205 202 199 193 191 195 200 202 202 207 217 212 206 216 221 213 210 216 218 219 218 212 209 206 202 214 229 226 219 207 194 191 194 204 217 223 222 224 229 235 242
326 327 326 322 317 313 312 313 313 313 310 299 297 304 310 315 318 318 322 325 323 312 288 267 247 233 228 220 219 225 228 221 210 197 188 181 184 195 196 195 197 196 192 193 198 204 206 204 201 196 192 192 194 194 197 203 204 202 202 203 207 217 220 214 209 211 217 216 206 203 207 204 211 225 223 214 208 203 202 205 211 219 223 222 226 232 237 241
328 329 331 328 322 315 311 311 312 312 307 296 295 303 308 310 311 314 323 329 328 325 309 282 259 240 233 225 221 228 233 225 214 203 194 183 179 192 202 200 198 196 193 192 196 201 203 203 201 197 193 194 195 194 191 197 205 201 194 198 203 211 219 217 207 203 211 216 208 206 213 213 218 230 229 217 212 211 212 215 218 221 222 221 222 227 233 237
331 331 331 331 327 318 312 312 313 312 303 293 294 300 304 305 305 310 322 330 327 324 318 299 274 250 242 235 225 230 236 227 218 211 202 188 175 181 198 204 201 198 195 193 196 199 200 202 202 199 197 196 197 198 193 192 202 201 189 189 199 205 212 217 212 204 205 213 210 207 213 215 217 229 234 227 219 215 214 217 221 224 226 226 224 221 226 231
333 331 330 332 331 323 315 314 316 313 303 293 293 295 299 304 305 306 315 326 327 322 319 314 297 266 255 249 232 229 233 227 221 217 209 195 179 172 185 203 206 203 198 196 196 197 198 202 203 201 200 199 199 202 198 191 198 203 197 189 189 195 206 214 214 208 204 208 211 209 213 216 213 216 228 230 226 221 218 219 225 229 231 234 236 232 232 235